星链-32940 (STARLINK-32940)

导读

STARLINK-32940是美国于2025年4月13日发射的星链卫星,星链是SpaceX打造的低轨卫星互联网星座,旨在为全球提供高速低延迟宽带网络服务,该卫星属于星链组网卫星之一,发射后将进入预定轨道,补充完善星链星座的全球覆盖能力与服务性能。

基本信息
目录编号:
63568
目录名称:
STARLINK-32940
国际标识:
2025-075W
轨道中心:
EARTH
卫星名称:
星链-32940
卫星全名:
星链-32940 (STARLINK-32940)
卫星状态:
在轨 (已飞行509 天)
发射日期:
2025-04-13 UTC
国别 :
美国 (US)
星等 :
--
轨道信息
数据来源 国际轨道数据 AOE轨道数据
星历时间 2026-09-04T15:06:31+0800
5小时前
查看轨道信息
2026-08-31T08:00:00+0800
4天前
查看轨道信息
半长轴 6861.184km 6861.265km
偏心率 0.0002127 0.0001619
轨道倾角 43.005° 43.003°
近地点辐角 274.644° 276.522°
升交点赤经 341.871° 6.134°
平近点角 85.417° 189.852°
近地点 481.587km 482.017km
远地点 484.507km 484.239km
周期 94.267分钟 94.268分钟
每日圈数 15.275807 15.275538
详细信息
固有亮度:
5
最大亮度:
2.5
卫星平台:
Starlink V1.0
覆盖范围:
全球
运营商:
太空探索技术公司
运营商所在国:
美国
制造商(研发单位):
太空探索技术公司
制造商所在国:
美国
使用方式:
暂无
卫星简介
Starlink 计划是 SpaceX 推出的全球卫星互联网项目,通过发射低轨道卫星,为全球尤其是偏远地区提供高速、低延迟的互联网服务。自 2019 年起,Starlink 已部署数千颗卫星,旨在缩小全球数字鸿沟,推动互联网普及。该项目还为军事、航空等行业提供通信支持,带来广泛经济效益。
2D轨道图
3D轨道图
轨道高度分析图
轨道倾角分析图
轨道综合分析图
查看轨道综合分析图